DAH3019 LTFM-DAAG

Flight info

Callsign DAH3019
Flight time N/A
Altitude 40000
Route BARPE1D/35L BARPE UM603 GOLDO DCT PINDO DCT GOKEL/N0445F390 DCT ENSOT DCT GOKMI DCT SUPUX DCT ETOIL DCT REQIN UM986 ZEM
Aircraft A332/H-SDE3GHIJ2J3J5M1RVWXY/LB2D1

Departure

Time 2026-05-04 11:01
Airport İstanbul Airport (LTFM)

Arrival

Time N/A
Airport Houari Boumediene Airport (DAAG)
Time Latitude Longitude Altitude Speed Heading
2026-05-04 10:44 41.26784 28.73442 310 ft 1 kts 179°
2026-05-04 10:54 41.26793 28.73442 332 ft 4 kts 179°
2026-05-04 10:56 41.26871 28.73497 334 ft 0 kts 270°
2026-05-04 10:57 41.26871 28.73495 338 ft 2 kts 270°
2026-05-04 10:58 41.26870 28.73431 334 ft 12 kts 269°
2026-05-04 10:58 41.26869 28.73307 334 ft 15 kts 269°
2026-05-04 10:58 41.26866 28.73161 335 ft 16 kts 269°
2026-05-04 10:58 41.26851 28.73016 332 ft 16 kts 230°
2026-05-04 10:59 41.26745 28.72979 334 ft 13 kts 210°
2026-05-04 10:59 41.26716 28.72873 338 ft 12 kts 269°
2026-05-04 10:59 41.26714 28.72740 338 ft 15 kts 269°
2026-05-04 10:59 41.26712 28.72593 334 ft 16 kts 269°
2026-05-04 11:00 41.26731 28.72518 333 ft 4 kts 332°
2026-05-04 11:01 41.31439 28.72476 2419 ft 162 kts 359°
2026-05-04 11:02 41.32656 28.72486 2721 ft 187 kts 359°
2026-05-04 11:02 41.34066 28.72497 2978 ft 218 kts 359°
2026-05-04 11:05 41.22830 28.54227 13819 ft 392 kts 198°
2026-05-04 11:06 41.20236 28.53004 14489 ft 397 kts 201°
2026-05-04 11:06 41.17645 28.51704 15311 ft 398 kts 201°
2026-05-04 11:06 41.15055 28.50400 16113 ft 399 kts 201°
2026-05-04 11:06 41.12457 28.49097 16907 ft 400 kts 201°
2026-05-04 11:08 40.93288 28.41844 21175 ft 424 kts 199°
2026-05-04 11:10 40.84080 28.18970 24609 ft 435 kts 263°
2026-05-04 11:12 40.79869 27.90956 27477 ft 455 kts 263°
2026-05-04 11:12 40.79489 27.86809 27841 ft 455 kts 271°
2026-05-04 11:12 40.79450 27.82626 28220 ft 456 kts 274°
2026-05-04 11:12 40.79493 27.78417 28583 ft 459 kts 275°
2026-05-04 11:13 40.79545 27.74237 28939 ft 462 kts 275°
2026-05-04 11:13 40.79593 27.69980 29283 ft 466 kts 275°
2026-05-04 11:13 40.79637 27.65682 29641 ft 469 kts 274°
2026-05-04 11:13 40.79772 27.61379 29976 ft 469 kts 280°
2026-05-04 11:14 40.80350 27.57143 30283 ft 467 kts 288°
2026-05-04 11:14 40.81180 27.52985 30589 ft 469 kts 290°
2026-05-04 11:14 40.82047 27.48875 30904 ft 470 kts 290°
2026-05-04 11:16 40.88234 27.19189 33331 ft 478 kts 288°
2026-05-04 11:16 40.89095 27.15008 33723 ft 477 kts 288°
2026-05-04 11:16 40.89968 27.10758 33975 ft 480 kts 288°
2026-05-04 11:17 40.90842 27.06499 34293 ft 480 kts 288°
2026-05-04 11:17 40.91703 27.02244 34702 ft 477 kts 286°
2026-05-04 11:19 40.91160 26.72247 37557 ft 461 kts 267°
2026-05-04 11:19 40.90890 26.68031 37936 ft 458 kts 267°
2026-05-04 11:19 40.90628 26.63834 38313 ft 456 kts 268°
2026-05-04 11:19 40.90373 26.59663 38694 ft 453 kts 268°
2026-05-04 11:20 40.90205 26.56912 38881 ft 452 kts 268°
2026-05-04 11:20 40.89954 26.52775 39081 ft 451 kts 268°
2026-05-04 11:20 40.89702 26.48631 39237 ft 452 kts 268°